1491627600.3,7756,9.88,72964.8,-5.89,-6.55,-6.39,0,*6D
1491627601.49,7757,9.88,72964.3,-5.91,-6.43,-6.43,0,*6F
1491627602.69,7758,9.88,72962.0,-5.91,-6.43,-6.47,0,*64
1491627603.91,7759,9.88,72938.3,-5.89,-6.43,-6.39,0,*65
1491627605.1,7760,9.88,72936.5,-5.87,-6.31,-6.39,0,*64
1491627606.34,7761,9.88,72958.5,-5.89,-6.27,-6.31,0,*64
1491627607.56,7762,9.88,72972.3,-5.89,-6.31,-6.31,0,*60
1491627608.78,7763,9.88,72980.5,-5.87,-6.31,-6.27,0,*68
1491627609.99,7764,9.88,72978.8,-5.87,-6.27,-6.13,0,*6F
1491627611.2,7765,9.88,73008.5,-5.89,-6.13,-6.13,0,*67
1491627612.42,7766,9.88,72992.5,-5.87,-6.19,-6.13,0,*60
1491627613.67,7767,9.88,72998.8,-5.87,-6.19,-6.27,0,*66
1491627614.9,7768,9.88,73000.8,-5.87,-6.27,-6.27,0,*64
1491627616.1,7769,9.88,72982.8,-5.87,-6.31,-6.39,0,*6D
1491627617.3,7770,9.88,72974.5,-5.87,-6.43,-6.31,0,*68
1491627618.49,7771,9.88,72978.3,-5.87,-6.39,-6.31,0,*64
1491627619.71,7772,9.88,72984.5,-5.87,-6.31,-6.27,0,*68
1491627620.93,7773,9.88,72972.5,-5.87,-6.31,-6.27,0,*69
1491627622.14,7774,9.88,72972.3,-5.87,-6.27,-6.31,0,*6E
1491627623.38,7775,9.88,72982.5,-5.87,-6.27,-6.27,0,*68
1491627624.59,7776,9.88,72980.3,-5.87,-6.27,-6.13,0,*6C
1491627625.78,7777,9.88,72994.3,-5.87,-6.13,-6.13,0,*6A
1491627626.98,7778,9.88,72992.0,-5.87,-6.01,-6.01,0,*65
1491627628.19,7779,9.88,72988.8,-5.85,-6.01,-5.97,0,*6A
1491627629.4,7780,9.88,72982.0,-5.85,-5.97,-5.97,0,*60
1491627630.67,7781,9.88,72956.5,-5.85,-5.85,-5.81,0,*65
1491627631.94,7782,9.88,72998.8,-5.85,-5.89,-5.89,0,*62
1491627633.18,7783,9.88,73000.8,-5.83,-5.89,-5.85,0,*69
1491627634.45,7784,9.88,72988.5,-5.85,-5.89,-5.89,0,*64
1491627635.72,7785,9.88,72992.8,-5.85,-5.85,-5.81,0,*61
1491627636.96,7786,9.88,72980.5,-5.83,-5.89,-5.89,0,*60
1491627638.21,7787,9.88,72978.8,-5.83,-5.89,-5.89,0,*61
1491627639.45,7788,9.88,72984.5,-5.83,-5.89,-5.89,0,*6E
1491627640.7,7789,9.88,72986.0,-5.79,-5.81,-5.85,0,*6E
1491627641.95,7790,9.88,72978.0,-5.79,-5.85,-5.85,0,*62
1491627643.17,7791,9.88,72996.0,-5.77,-5.97,-5.97,0,*6D
1491627644.36,7792,9.88,73002.0,-5.79,-6.09,-6.05,0,*6C
1491627645.63,7793,9.88,73000.5,-5.77,-6.19,-6.19,0,*6F
1491627646.87,7794,9.88,72994.0,-5.79,-6.23,-6.23,0,*66
1491627648.07,7795,9.88,72954.8,-5.79,-6.35,-6.43,0,*66
1491627649.29,7796,9.88,72950.5,-5.77,-6.35,-6.35,0,*6A
1491627650.49,7797,9.88,72936.3,-5.79,-6.31,-6.31,0,*65
1491627651.68,7798,9.88,72918.8,-5.79,-6.43,-6.35,0,*6B
1491627652.88,7799,9.88,72908.0,-5.79,-6.47,-6.47,0,*6B
1491627654.07,7800,9.88,72908.5,-5.79,-6.47,-6.43,0,*60
1491627655.29,7801,9.88,72912.3,-5.79,-6.31,-6.23,0,*66
1491627656.5,7802,9.88,72904.8,-5.79,-6.31,-6.23,0,*65
1491627657.7,7803,9.88,72894.5,-5.83,-6.35,-6.35,0,*62
1491627658.89,7804,9.88,72908.0,-5.83,-6.35,-6.35,0,*65
1491627660.13,7805,9.88,72912.3,-5.83,-6.27,-6.27,0,*64
1491627661.32,7806,9.88,72926.8,-5.83,-6.13,-6.13,0,*67
1491627662.5,7807,9.88,72932.3,-5.83,-6.13,-6.09,0,*6D
1491627663.69,7808,9.88,72942.8,-5.83,-6.09,-6.09,0,*69
1491627664.88,7809,9.88,72950.3,-5.79,-5.97,-6.05,0,*65
1491627666.09,7810,9.88,72950.3,-5.77,-6.05,-6.09,0,*67
1491627667.28,7811,9.88,72952.0,-5.79,-6.05,-6.05,0,*64
1491627668.47,7812,9.88,72966.5,-5.79,-6.05,-5.97,0,*6F
1491627669.68,7813,9.88,72974.5,-5.77,-6.05,-5.97,0,*60
1491627670.87,7814,9.88,72976.5,-5.79,-6.05,-6.09,0,*6D
1491627672.08,7815,9.88,72968.0,-5.77,-6.09,-6.05,0,*62
1491627673.3,7816,9.88,72976.0,-5.77,-6.09,-6.09,0,*6D
1491627674.51,7817,9.88,72980.0,-5.77,-6.09,-6.05,0,*60
1491627675.73,7818,9.88,72988.3,-5.77,-6.09,-6.09,0,*63
1491627676.97,7819,9.88,72996.3,-5.77,-6.23,-6.09,0,*6A
1491627678.24,7820,9.88,72994.8,-5.77,-6.19,-6.19,0,*68
1491627679.51,7821,9.88,72994.5,-5.77,-6.23,-6.19,0,*60
1491627680.72,7822,9.88,72992.5,-5.77,-6.09,-6.09,0,*6A
1491627681.94,7823,9.88,72990.3,-5.77,-5.97,-6.05,0,*63
1491627683.21,7824,9.88,73002.3,-5.77,-5.93,-5.93,0,*6C
1491627684.48,7825,9.88,72998.8,-5.77,-5.93,-5.93,0,*6D
1491627685.76,7826,9.88,72992.8,-5.77,-5.93,-5.85,0,*69
1491627687.0,7827,9.88,73012.8,-5.75,-5.89,-5.89,0,*6D
1491627688.27,7828,9.88,73014.0,-5.77,-5.93,-5.93,0,*60
1491627689.49,7829,9.88,73030.8,-5.77,-6.05,-5.97,0,*69
1491627690.73,7830,9.88,73012.5,-5.77,-6.09,-6.19,0,*68
1491627691.99,7831,9.88,72966.8,-5.77,-6.23,-6.23,0,*68
1491627693.21,7832,9.88,72948.3,-5.77,-6.55,-6.55,0,*6B
1491627694.43,7833,9.88,72948.8,-5.77,-6.73,-6.73,0,*6A
1491627695.69,7834,9.88,72948.3,-5.77,-6.63,-6.63,0,*6D
1491627696.91,7835,9.88,72958.5,-5.77,-6.59,-6.59,0,*6C
1491627698.12,7836,9.88,72954.8,-5.77,-6.47,-6.43,0,*6B
1491627699.35,7837,9.88,72946.5,-5.77,-6.35,-6.31,0,*6A
1491627700.57,7838,9.88,72948.3,-5.77,-6.31,-6.31,0,*61
1491627701.81,7839,9.88,72958.3,-5.77,-6.31,-6.23,0,*63
1491627703.01,7840,9.88,72956.8,-5.79,-6.31,-6.31,0,*60
1491627704.25,7841,9.88,72952.5,-5.77,-6.31,-6.19,0,*65
1491627705.52,7842,9.88,72960.5,-5.77,-6.19,-6.19,0,*6C
1491627706.79,7843,9.88,72960.5,-5.77,-6.19,-6.19,0,*6D
1491627708.04,7844,9.88,72952.8,-5.79,-6.19,-6.19,0,*64
1491627709.26,7845,9.88,72960.8,-5.79,-6.19,-6.09,0,*64
1491627710.45,7846,9.88,72962.3,-5.79,-6.05,-6.09,0,*6A
1491627711.66,7847,9.88,72976.3,-5.77,-6.09,-6.05,0,*65
1491627712.88,7848,9.88,72970.5,-5.77,-6.09,-6.09,0,*66
1491627714.12,7849,9.88,72956.8,-5.77,-6.19,-6.09,0,*66
1491627715.39,7850,9.88,72976.3,-5.77,-6.19,-6.19,0,*6F
1491627716.66,7851,9.88,72980.3,-5.77,-6.23,-6.19,0,*67
1491627717.93,7852,9.88,72974.0,-5.77,-6.19,-6.19,0,*6D
1491627719.2,7853,9.88,72984.5,-5.77,-6.23,-6.19,0,*65
1491627720.41,7854,9.88,72982.3,-5.77,-6.09,-6.09,0,*6B
1491627721.65,7855,9.88,72982.0,-5.79,-6.23,-6.23,0,*64
1491627722.89,7856,9.88,72976.5,-5.77,-6.31,-6.23,0,*6A
1491627724.13,7857,9.88,72950.3,-5.75,-6.27,-6.27,0,*6A
1491627725.35,7858,9.88,72942.0,-5.77,-6.31,-6.35,0,*63
1491627726.57,7859,9.88,72940.8,-5.79,-6.23,-6.31,0,*6B
1491627727.79,7860,9.88,72930.3,-5.77,-6.35,-6.31,0,*68
1491627729.01,7861,9.88,72936.0,-5.79,-6.23,-6.31,0,*60
1491627730.24,7862,9.88,72944.0,-5.77,-6.31,-6.31,0,*6E
1491627731.46,7863,9.88,72936.0,-5.77,-6.31,-6.31,0,*6F
1491627732.68,7864,9.88,72964.3,-5.77,-6.31,-6.31,0,*68
1491627733.9,7865,9.88,72976.0,-5.77,-6.31,-6.31,0,*69
1491627735.16,7866,9.88,72970.8,-5.77,-6.23,-6.23,0,*6A
1491627736.42,7867,9.88,72972.3,-5.77,-6.23,-6.23,0,*6B
1491627737.62,7868,9.88,72966.3,-5.79,-6.35,-6.35,0,*6A
1491627738.84,7869,9.88,72958.0,-5.77,-6.35,-6.35,0,*65
1491627740.07,7870,9.88,72972.3,-5.77,-6.31,-6.31,0,*6D
1491627741.29,7871,9.88,72978.8,-5.75,-6.31,-6.19,0,*64
1491627742.52,7872,9.88,72966.5,-5.75,-6.27,-6.27,0,*6D
1491627743.74,7873,9.88,72966.3,-5.77,-6.47,-6.47,0,*6E
1491627744.96,7874,9.88,72954.3,-5.77,-6.59,-6.59,0,*69
1491627746.18,7875,9.88,72948.8,-5.77,-6.55,-6.55,0,*68
1491627747.4,7876,9.88,72972.0,-5.77,-6.43,-6.35,0,*6A
1491627748.62,7877,9.88,72972.5,-5.77,-6.43,-6.31,0,*6F
1491627749.82,7878,9.88,72980.8,-5.79,-6.35,-6.35,0,*6B
1491627751.04,7879,9.88,72978.3,-5.77,-6.31,-6.31,0,*64
1491627752.24,7880,9.88,72980.3,-5.79,-6.35,-6.35,0,*6C
1491627753.44,7881,9.88,72988.0,-5.79,-6.31,-6.31,0,*6D
1491627754.64,7882,9.88,72986.0,-5.79,-6.35,-6.35,0,*6E
1491627755.86,7883,9.94,72984.0,-5.77,-6.43,-6.43,0,*61
1491627757.05,7884,9.88,72994.5,-5.79,-6.43,-6.35,0,*69
1491627758.25,7885,9.88,73000.5,-5.79,-6.35,-6.35,0,*69
1491627759.45,7886,9.88,73006.5,-5.79,-6.31,-6.31,0,*6A
1491627760.71,7887,9.88,72962.8,-5.77,-6.23,-6.23,0,*65
1491627761.98,7888,9.88,72976.3,-5.77,-6.19,-6.23,0,*63
1491627763.19,7889,9.88,72988.5,-5.79,-6.19,-6.09,0,*64
1491627764.44,7890,9.88,72986.5,-5.77,-6.09,-6.19,0,*62
1491627765.71,7891,9.88,72992.5,-5.77,-6.23,-6.19,0,*6B
1491627766.97,7892,9.88,72968.8,-5.77,-6.19,-6.23,0,*68
1491627768.24,7893,9.88,72954.8,-5.77,-6.19,-6.19,0,*60
1491627769.52,7894,9.88,73006.5,-5.77,-6.19,-6.19,0,*67
1491627770.73,7895,9.88,73010.8,-5.77,-6.09,-6.09,0,*66
1491627771.95,7896,9.88,72988.0,-5.77,-6.09,-6.09,0,*65
1491627773.22,7897,9.88,73006.5,-5.77,-6.19,-6.19,0,*64
1491627774.41,7898,9.88,72994.3,-5.75,-6.13,-6.01,0,*6A
1491627775.6,7899,9.88,72988.3,-5.75,-6.05,-6.05,0,*68
1491627776.79,7900,9.88,72978.0,-5.75,-6.01,-6.01,0,*69
1491627777.98,7901,9.94,73016.8,-5.75,-6.05,-6.01,0,*6C
1491627779.17,7902,9.88,73032.3,-5.75,-6.01,-6.05,0,*6F
1491627780.36,7903,9.88,73018.8,-5.75,-6.13,-6.05,0,*6D
1491627781.55,7904,9.88,73018.0,-5.75,-6.01,-6.05,0,*69
1491627782.74,7905,9.88,73020.3,-5.75,-6.01,-6.01,0,*6C
1491627783.95,7906,9.88,73024.5,-5.75,-6.05,-5.93,0,*63
1491627785.2,7907,9.88,73024.3,-5.75,-5.93,-5.93,0,*6E
1491627786.45,7908,9.88,72988.3,-5.75,-5.93,-5.93,0,*61
1491627787.69,7909,9.88,72958.0,-5.73,-6.19,-6.05,0,*6B
1491627788.93,7910,9.88,72942.3,-5.75,-6.27,-6.27,0,*68
1491627790.18,7911,9.88,72950.8,-5.75,-6.19,-6.19,0,*69
1491627791.39,7912,9.88,72948.3,-5.75,-6.19,-6.13,0,*60
1491627792.58,7913,9.88,72946.5,-5.75,-6.13,-6.05,0,*6C
1491627793.77,7914,9.88,72962.8,-5.75,-6.01,-6.05,0,*68
1491627794.96,7915,9.88,72966.3,-5.75,-6.05,-6.05,0,*6D
1491627796.17,7916,9.88,72978.5,-5.73,-6.01,-6.01,0,*68
1491627797.39,7917,9.88,72982.8,-5.73,-6.01,-6.01,0,*69
1491627798.6,7918,9.88,72968.5,-5.73,-6.01,-6.05,0,*62
1491627799.81,7919,9.94,72980.0,-5.73,-6.01,-6.01,0,*67
1491627801.08,7920,9.88,72974.8,-5.73,-5.89,-5.89,0,*6D
1491627802.35,7921,9.88,72968.5,-5.73,-5.93,-5.93,0,*6C
1491627803.63,7922,9.88,72958.3,-5.73,-5.93,-5.93,0,*6F
1491627804.9,7923,9.88,72952.3,-5.73,-5.93,-5.93,0,*6E
1491627806.14,7924,9.88,72938.5,-5.73,-6.01,-5.93,0,*61
1491627807.41,7925,9.88,72964.8,-5.73,-6.19,-6.19,0,*68
1491627808.65,7926,9.88,72958.3,-5.73,-6.19,-6.13,0,*61
1491627809.85,7927,9.88,72968.5,-5.71,-6.13,-6.09,0,*63
1491627811.04,7928,9.88,72986.0,-5.75,-6.13,-6.05,0,*64
1491627812.25,7929,9.88,72992.3,-5.73,-6.05,-6.05,0,*64
1491627813.46,7930,9.88,73008.5,-5.73,-6.05,-6.01,0,*68
1491627814.67,7931,9.88,72996.8,-5.73,-6.01,-6.01,0,*6D
1491627815.91,7932,9.88,72988.5,-5.73,-6.01,-5.89,0,*6D
1491627817.19,7933,9.88,72974.3,-5.73,-5.93,-5.89,0,*64
1491627818.41,7934,9.88,72982.3,-5.71,-6.01,-5.89,0,*69
1491627819.61,7935,9.88,72980.3,-5.71,-6.01,-5.97,0,*67
1491627820.8,7936,9.88,72966.5,-5.71,-5.97,-5.97,0,*68
1491627821.99,7937,9.88,72976.5,-5.71,-5.97,-6.01,0,*65
1491627823.19,7938,9.88,72960.3,-5.71,-6.01,-6.01,0,*66
1491627824.38,7939,9.88,72906.5,-5.71,-6.01,-6.01,0,*67
1491627825.57,7940,9.88,72922.0,-5.71,-6.01,-6.01,0,*69
1491627826.79,7941,9.88,72926.5,-5.69,-5.97,-5.97,0,*61
1491627827.98,7942,9.88,72934.3,-5.71,-6.01,-6.01,0,*6B
1491627829.17,7943,9.88,72918.3,-5.71,-6.13,-6.09,0,*61
1491627830.39,7944,9.88,72934.0,-5.69,-6.09,-6.09,0,*64
1491627831.61,7945,9.88,72988.5,-5.71,-6.13,-6.23,0,*6F
1491627832.8,7946,9.94,72990.0,-5.71,-6.13,-6.13,0,*6F
1491627834.04,7947,9.94,72970.3,-5.69,-6.19,-6.09,0,*66
1491627835.24,7948,9.88,72972.5,-5.71,-6.35,-6.35,0,*61
1491627836.46,7949,9.88,72974.0,-5.71,-6.27,-6.35,0,*63
1491627837.7,7950,9.88,72974.8,-5.71,-6.23,-6.23,0,*68
1491627838.94,7951,9.88,72950.5,-5.71,-6.23,-6.27,0,*6D
1491627840.14,7952,9.88,72940.3,-5.71,-6.47,-6.47,0,*6A
1491627841.34,7953,9.88,72930.5,-5.71,-6.47,-6.47,0,*6B
1491627842.53,7954,9.88,72920.8,-5.71,-6.35,-6.39,0,*60
1491627843.77,7955,9.88,72920.5,-5.71,-6.27,-6.27,0,*6D
1491627845.02,7956,9.88,72938.0,-5.71,-6.23,-6.27,0,*6A
1491627846.28,7957,9.88,72948.5,-5.73,-6.27,-6.19,0,*60
1491627847.49,7958,9.94,72944.0,-5.73,-6.13,-6.13,0,*62
1491627848.69,7959,9.88,72942.8,-5.71,-6.13,-6.09,0,*6A
1491627849.88,7960,9.88,72944.8,-5.71,-6.09,-6.01,0,*63
1491627851.09,7961,9.88,72966.3,-5.73,-6.05,-6.01,0,*6C
1491627852.31,7962,9.94,72966.3,-5.73,-6.05,-6.01,0,*6F
1491627853.58,7963,9.88,72968.5,-5.69,-5.93,-5.85,0,*66
1491627854.8,7964,9.88,72972.0,-5.71,-5.97,-5.89,0,*60
1491627856.0,7965,9.88,72992.8,-5.71,-5.97,-5.97,0,*6E
1491627857.19,7966,9.88,73018.5,-5.71,-6.01,-6.01,0,*6D
1491627858.39,7967,9.94,73004.3,-5.71,-6.01,-6.01,0,*6C
1491627859.58,7968,9.88,72988.5,-5.71,-6.13,-6.13,0,*63
1491627860.79,7969,9.94,73012.0,-5.71,-6.23,-6.13,0,*61
1491627862.03,7970,9.88,72998.3,-5.71,-6.27,-6.23,0,*6E
1491627863.23,7971,9.94,72978.0,-5.71,-6.51,-6.47,0,*6C
1491627864.42,7972,9.88,72946.5,-5.71,-6.39,-6.39,0,*68
1491627865.62,7973,9.94,72954.5,-5.71,-6.47,-6.39,0,*60
1491627866.88,7974,9.94,72956.8,-5.73,-6.27,-6.19,0,*61
1491627868.1,7975,9.94,72950.3,-5.73,-6.13,-6.13,0,*6D
1491627869.29,7976,9.88,72954.5,-5.71,-6.09,-6.13,0,*67
1491627870.49,7977,9.88,72978.3,-5.71,-6.09,-6.13,0,*66
1491627871.68,7978,9.88,72958.0,-5.71,-6.13,-6.09,0,*69
1491627872.9,7979,9.88,72950.5,-5.71,-6.23,-6.13,0,*60
1491627874.11,7980,9.94,72944.3,-5.71,-6.23,-6.09,0,*6D
1491627875.31,7981,9.94,72966.8,-5.71,-6.09,-6.13,0,*6F
1491627876.5,7982,9.88,72960.0,-5.71,-6.13,-6.13,0,*67
1491627877.72,7983,9.94,72966.3,-5.71,-6.09,-6.23,0,*6E
1491627878.92,7984,9.88,72950.3,-5.71,-6.13,-6.01,0,*62
1491627880.13,7985,9.94,72950.3,-5.71,-6.23,-6.13,0,*63
1491627881.33,7986,9.94,72954.8,-5.71,-6.13,-6.09,0,*68
1491627882.52,7987,9.88,72950.8,-5.71,-6.09,-6.09,0,*62
1491627883.72,7988,9.88,72954.8,-5.71,-6.09,-6.09,0,*6D
1491627884.91,7989,9.88,72942.0,-5.71,-6.01,-5.97,0,*60
1491627886.12,7990,9.88,72948.8,-5.69,-6.05,-6.05,0,*6D
1491627887.31,7991,9.94,72952.0,-5.71,-6.01,-6.01,0,*65
1491627888.58,7992,9.94,72948.5,-5.69,-5.93,-5.81,0,*6C
1491627889.86,7993,9.88,72944.5,-5.69,-5.85,-5.93,0,*69
1491627891.1,7994,9.88,72954.5,-5.69,-5.97,-5.93,0,*6D
1491627892.29,7995,9.88,72956.3,-5.71,-6.01,-5.97,0,*6D
1491627893.51,7996,9.88,72974.5,-5.69,-6.09,-5.97,0,*6F
1491627894.7,7997,9.88,72984.0,-5.71,-6.09,-6.01,0,*6B
1491627895.98,7998,9.88,72992.5,-5.69,-5.93,-5.85,0,*62
1491627897.19,7999,9.88,73002.0,-5.69,-5.97,-5.97,0,*64
1491627898.4,8000,9.88,72998.5,-5.69,-6.05,-5.97,0,*6A
1491627899.64,8001,9.88,72990.8,-5.69,-5.97,-5.93,0,*67
1491627900.92,8002,9.88,72990.5,-5.69,-5.93,-5.93,0,*60
1491627902.13,8003,9.88,72988.8,-5.69,-6.05,-6.09,0,*6D
1491627903.37,8004,9.88,72994.3,-5.69,-6.19,-6.09,0,*67
1491627904.63,8005,9.88,72998.3,-5.69,-6.23,-6.19,0,*6E
1491627905.86,8006,9.88,72994.0,-5.69,-6.35,-6.35,0,*64
1491627907.07,8007,9.88,72992.0,-5.69,-6.47,-6.47,0,*65
1491627908.29,8008,9.88,72980.5,-5.69,-6.51,-6.51,0,*6A
1491627909.49,8009,9.88,72960.3,-5.71,-6.55,-6.51,0,*66
1491627910.71,8010,9.88,72960.0,-5.69,-6.47,-6.47,0,*63
1491627911.91,8011,9.88,72972.0,-5.71,-6.51,-6.51,0,*6B
1491627913.13,8012,9.94,72990.5,-5.69,-6.59,-6.51,0,*69
1491627914.37,8013,9.88,72984.5,-5.71,-6.63,-6.63,0,*69
1491627915.59,8014,9.88,72972.0,-5.73,-6.59,-6.59,0,*6C
1491627916.81,8015,9.88,72940.0,-5.73,-6.59,-6.59,0,*6D
1491627917.99,8016,9.94,72946.5,-5.75,-6.69,-6.69,0,*68
1491627919.21,8017,9.88,72956.0,-5.73,-6.69,-6.59,0,*6C
1491627920.43,8018,9.88,72960.8,-5.73,-6.59,-6.59,0,*60
1491627921.64,8019,9.94,72972.3,-5.73,-6.59,-6.59,0,*61
1491627922.87,8020,9.88,72986.8,-5.73,-6.51,-6.51,0,*6B
1491627924.06,8021,9.88,72980.5,-5.75,-6.51,-6.39,0,*62
1491627925.28,8022,9.88,72984.0,-5.73,-6.43,-6.51,0,*6A
1491627926.5,8023,9.88,72978.8,-5.73,-6.39,-6.31,0,*60
1491627927.72,8024,9.88,72976.5,-5.73,-6.43,-6.43,0,*6F
1491627928.91,8025,9.88,72984.5,-5.75,-6.43,-6.39,0,*65
1491627930.12,8026,9.88,72990.3,-5.73,-6.31,-6.39,0,*65
1491627931.38,8027,9.88,72986.5,-5.73,-6.27,-6.27,0,*6C
1491627932.62,8028,9.88,72986.3,-5.73,-6.19,-6.13,0,*69
1491627933.84,8029,9.88,72984.8,-5.73,-6.13,-6.05,0,*65
1491627935.05,8030,9.88,72980.5,-5.73,-6.13,-6.01,0,*69
1491627936.29,8031,9.88,72986.5,-5.73,-6.05,-5.93,0,*67
1491627937.51,8032,9.88,72994.3,-5.73,-6.01,-6.01,0,*68
1491627938.73,8033,9.88,72996.3,-5.71,-5.97,-5.89,0,*64
1491627940.0,8034,9.88,72998.0,-5.69,-5.93,-5.89,0,*6E
1491627941.2,8035,9.88,72996.3,-5.71,-5.97,-5.97,0,*6D
1491627942.45,8036,9.88,72990.3,-5.71,-5.89,-5.85,0,*62
1491627943.72,8037,9.88,72984.8,-5.69,-5.81,-5.81,0,*66
1491627944.98,8038,9.88,72978.8,-5.69,-5.81,-5.81,0,*69
1491627946.24,8039,9.88,72980.3,-5.71,-5.85,-5.85,0,*61
1491627947.49,8040,9.88,72964.5,-5.71,-5.89,-5.89,0,*6F
1491627948.76,8041,9.88,72982.3,-5.69,-5.93,-5.85,0,*60
1491627950.04,8042,9.88,72988.0,-5.69,-5.93,-5.93,0,*64
1491627951.28,8043,9.88,72986.5,-5.69,-5.93,-5.97,0,*61
1491627952.55,8044,9.88,72978.8,-5.69,-5.85,-5.93,0,*65
1491627953.82,8045,9.88,72986.5,-5.69,-5.85,-5.93,0,*64
1491627955.09,8046,9.88,72980.0,-5.69,-5.93,-5.81,0,*63
1491627956.36,8047,9.88,72976.3,-5.69,-5.93,-5.93,0,*61
1491627957.58,8048,9.88,72976.0,-5.69,-6.09,-6.09,0,*6E
1491627958.84,8049,9.88,72990.5,-5.69,-6.23,-6.23,0,*6F
1491627960.03,8050,9.88,72992.3,-5.71,-6.39,-6.39,0,*6E
1491627961.25,8051,9.88,72998.5,-5.69,-6.43,-6.43,0,*66
1491627962.49,8052,9.88,72982.3,-5.69,-6.23,-6.31,0,*66
1491627963.7,8053,9.88,72946.5,-5.71,-6.35,-6.35,0,*6D
1491627964.94,8054,9.88,72926.3,-5.71,-6.23,-6.27,0,*6E
1491627966.21,8055,9.88,72946.5,-5.69,-6.19,-6.19,0,*62
1491627967.42,8056,9.88,72954.3,-5.69,-6.05,-5.97,0,*69
1491627968.61,8057,9.88,72966.0,-5.71,-6.09,-6.09,0,*69
1491627969.82,8058,9.88,72966.3,-5.69,-6.05,-5.97,0,*67
1491627971.1,8059,9.88,72964.0,-5.69,-5.93,-5.93,0,*6E
1491627972.34,8060,9.88,72964.5,-5.69,-5.97,-5.93,0,*60
1491627973.55,8061,9.88,72966.5,-5.69,-5.97,-5.97,0,*65
1491627974.75,8062,9.88,72980.3,-5.71,-6.09,-6.01,0,*67
1491627975.99,8063,9.88,72994.8,-5.69,-5.93,-5.97,0,*63
1491627977.18,8064,9.88,72988.8,-5.67,-5.97,-5.97,0,*6E
1491627978.37,8065,9.88,72988.8,-5.67,-6.09,-6.05,0,*63
1491627979.58,8066,9.88,72988.3,-5.67,-5.97,-5.93,0,*68
1491627980.8,8067,9.88,73014.5,-5.67,-5.97,-5.93,0,*69
1491627982.01,8068,9.88,73016.8,-5.67,-5.93,-5.97,0,*66
1491627983.26,8069,9.88,72994.0,-5.65,-5.97,-5.93,0,*65
1491627984.5,8070,9.88,72990.5,-5.67,-5.93,-5.93,0,*6B
1491627985.75,8071,9.88,72986.8,-5.67,-5.93,-5.93,0,*6A
1491627986.93,8072,9.88,73006.8,-5.67,-5.97,-5.97,0,*69
1491627988.15,8073,9.88,72932.5,-5.67,-5.97,-5.93,0,*6C
1491627989.37,8074,9.88,72894.3,-5.67,-5.97,-5.93,0,*6B
1491627990.55,8075,9.88,72976.3,-5.67,-6.05,-5.97,0,*66
1491627991.74,8076,9.88,72994.3,-5.67,-5.97,-6.05,0,*65
1491627992.98,8077,9.88,72968.3,-5.65,-6.09,-6.19,0,*6F
1491627994.17,8078,9.88,72932.5,-5.67,-6.05,-6.05,0,*63
1491627995.41,8079,9.88,72894.5,-5.65,-5.97,-5.93,0,*64
1491627996.59,8080,9.88,72884.0,-5.67,-5.97,-5.97,0,*64
1491627997.78,8081,9.88,72944.5,-5.67,-6.05,-6.05,0,*65
1491627998.99,8082,9.88,72976.8,-5.65,-6.09,-6.05,0,*68
1491628000.23,8083,9.88,72978.0,-5.65,-6.19,-6.09,0,*64
1491628001.45,8084,9.88,72968.0,-5.67,-6.09,-6.19,0,*61
1491628002.64,8085,9.94,72910.3,-5.67,-6.05,-6.09,0,*6D
1491628003.85,8086,9.88,72932.5,-5.65,-6.09,-6.09,0,*60
1491628005.04,8087,9.88,72930.0,-5.67,-6.09,-6.09,0,*63
1491628006.28,8088,9.88,72962.0,-5.67,-6.19,-6.19,0,*6C
1491628007.52,8089,9.88,72968.8,-5.67,-6.19,-6.23,0,*64
1491628008.79,8090,9.88,72958.0,-5.65,-6.23,-6.19,0,*6E
1491628010.03,8091,9.88,72940.3,-5.65,-6.19,-6.09,0,*67
1491628011.3,8092,9.88,72968.8,-5.65,-6.19,-6.19,0,*65
1491628012.57,8093,9.88,72932.8,-5.65,-6.19,-6.19,0,*64
1491628013.83,8094,9.88,72964.8,-5.65,-6.23,-6.23,0,*63
1491628015.03,8095,9.88,72982.0,-5.67,-6.35,-6.35,0,*60
1491628016.22,8096,9.88,72960.8,-5.67,-6.47,-6.47,0,*63
1491628017.4,8097,9.88,72964.8,-5.67,-6.47,-6.47,0,*62
1491628018.6,8098,9.94,72962.5,-5.67,-6.43,-6.47,0,*69
1491628019.79,8099,9.88,72964.8,-5.67,-6.47,-6.47,0,*6C
1491628020.98,8100,9.88,72948.8,-5.67,-6.47,-6.51,0,*6A
1491628022.17,8101,9.88,72894.5,-5.67,-6.47,-6.43,0,*68
1491628023.39,8102,9.88,72970.0,-5.69,-6.31,-6.31,0,*61
1491628024.61,8103,9.88,72966.5,-5.69,-6.31,-6.31,0,*60
1491628025.83,8104,9.88,72960.3,-5.69,-6.35,-6.31,0,*63
1491628027.06,8105,9.94,72956.8,-5.69,-6.35,-6.31,0,*62
1491628028.28,8106,9.88,72944.3,-5.69,-6.35,-6.35,0,*65
1491628029.54,8107,9.88,72924.0,-5.69,-6.23,-6.23,0,*64
1491628030.8,8108,9.88,72922.8,-5.69,-6.23,-6.23,0,*6B
1491628032.07,8109,9.88,72926.0,-5.69,-6.19,-6.19,0,*6A
1491628033.25,8110,9.88,72924.8,-5.67,-6.05,-6.09,0,*60
1491628034.44,8111,9.88,72930.8,-5.67,-6.05,-6.05,0,*6D
1491628035.63,8112,9.88,72936.0,-5.67,-6.09,-6.05,0,*62
1491628036.89,8113,9.88,72910.8,-5.69,-6.23,-6.19,0,*68
1491628038.15,8114,9.88,72932.5,-5.69,-6.23,-6.23,0,*66
1491628039.34,8115,9.88,72914.0,-5.67,-6.09,-6.09,0,*69
1491628040.58,8116,9.88,72932.0,-5.67,-6.19,-6.23,0,*63
1491628041.77,8117,9.88,72942.5,-5.67,-6.09,-6.09,0,*6B
1491628043.02,8118,9.88,72956.8,-5.67,-6.19,-6.19,0,*64
1491628044.23,8119,9.88,72962.0,-5.67,-6.19,-6.05,0,*68
1491628045.45,8120,9.88,72972.3,-5.67,-5.97,-5.93,0,*6B
1491628046.69,8121,9.88,72980.0,-5.67,-5.93,-5.93,0,*6E
1491628047.94,8122,9.88,72990.0,-5.67,-5.85,-5.81,0,*69
1491628049.18,8123,9.88,72992.3,-5.67,-5.85,-5.81,0,*68
1491628050.43,8124,9.88,72998.3,-5.67,-5.85,-5.81,0,*6F
1491628051.7,8125,9.88,73000.0,-5.65,-5.85,-5.85,0,*68
1491628052.97,8126,9.88,73002.8,-5.65,-5.81,-5.81,0,*6B
1491628054.24,8127,9.88,73002.0,-5.65,-5.81,-5.81,0,*6A
1491628055.48,8128,9.88,73000.0,-5.67,-5.81,-5.73,0,*6A
1491628056.72,8129,9.88,72996.8,-5.67,-5.81,-5.69,0,*60
1491628057.96,8130,9.88,72996.3,-5.67,-5.81,-5.73,0,*63
1491628059.22,8131,9.88,72992.5,-5.65,-5.69,-5.73,0,*66
1491628060.46,8132,9.88,72988.3,-5.63,-5.69,-5.69,0,*68
1491628061.71,8133,9.88,72970.3,-5.63,-5.81,-5.69,0,*6F
1491628062.96,8134,9.94,72972.3,-5.63,-5.89,-5.89,0,*6E
1491628064.21,8135,9.88,72960.5,-5.63,-5.93,-5.93,0,*6F
1491628065.46,8136,9.88,72986.8,-5.63,-5.89,-5.89,0,*6C
1491628066.73,8137,9.88,73000.5,-5.61,-5.81,-5.81,0,*6F
1491628067.94,8138,9.88,72998.3,-5.61,-6.05,-6.05,0,*60
1491628069.21,8139,9.88,72984.8,-5.61,-6.19,-6.27,0,*6C
1491628070.41,8140,9.88,72998.5,-5.63,-6.31,-6.31,0,*6D
1491628071.61,8141,9.88,73008.8,-5.63,-6.13,-6.13,0,*6C
1491628072.87,8142,9.88,73008.0,-5.65,-6.23,-6.19,0,*60
1491628074.06,8143,9.88,73000.3,-5.63,-6.13,-6.13,0,*6E
1491628075.31,8144,9.88,72992.5,-5.65,-6.09,-6.19,0,*6E
1491628076.53,8145,9.88,73006.3,-5.65,-6.09,-6.09,0,*6E
1491628077.73,8146,9.88,73010.8,-5.65,-6.05,-6.05,0,*6D
1491628078.94,8147,9.94,73014.5,-5.65,-6.05,-6.09,0,*60
1491628080.14,8148,9.88,73010.8,-5.63,-6.01,-6.01,0,*65
1491628081.38,8149,9.88,73008.8,-5.63,-5.89,-5.89,0,*64
1491628082.63,8150,9.88,72996.0,-5.63,-5.89,-5.81,0,*64
1491628083.9,8151,9.88,72994.3,-5.61,-5.81,-5.81,0,*6F
1491628085.18,8152,9.88,73006.0,-5.61,-5.89,-5.81,0,*64
1491628086.42,8153,9.88,73016.0,-5.63,-5.77,-5.77,0,*6F
1491628087.66,8154,9.88,73016.3,-5.63,-5.77,-5.69,0,*67
1491628088.93,8155,9.88,73004.5,-5.61,-5.81,-5.77,0,*62
1491628090.2,8156,9.88,72998.0,-5.61,-5.77,-5.77,0,*68
1491628091.47,8157,9.88,72996.8,-5.61,-5.77,-5.77,0,*69
1491628092.71,8158,9.88,73006.3,-5.63,-5.81,-5.81,0,*64
1491628093.96,8159,9.88,73000.5,-5.63,-5.89,-5.89,0,*65
1491628095.24,8160,9.88,72982.3,-5.61,-5.93,-5.93,0,*6D
1491628096.51,8161,9.88,72996.3,-5.61,-5.81,-5.77,0,*65
1491628097.77,8162,9.88,73004.3,-5.57,-5.73,-5.73,0,*6A
1491628099.03,8163,9.88,72988.5,-5.57,-5.73,-5.73,0,*6B
1491628100.28,8164,9.88,72988.3,-5.57,-5.73,-5.73,0,*6C
1491628101.55,8165,9.88,72992.3,-5.57,-5.73,-5.61,0,*6E
1491628102.81,8166,9.88,72982.8,-5.57,-5.73,-5.65,0,*69
1491628104.03,8167,9.88,72966.3,-5.55,-5.61,-5.51,0,*6E
1491628105.3,8168,9.88,72950.0,-5.57,-5.65,-5.65,0,*60
1491628106.57,8169,9.88,72954.0,-5.57,-5.65,-5.65,0,*61
1491628107.81,8170,9.88,72960.0,-5.55,-5.65,-5.61,0,*6F
1491628109.07,8171,9.88,72966.3,-5.57,-5.73,-5.77,0,*6C
1491628110.3,8172,9.88,72956.0,-5.55,-5.73,-5.73,0,*69
1491628111.54,8173,9.88,72948.0,-5.55,-5.73,-5.69,0,*63
1491628112.78,8174,9.88,72960.8,-5.55,-5.69,-5.69,0,*6F
1491628114.04,8175,9.88,72968.3,-5.57,-5.73,-5.73,0,*6C
1491628115.27,8176,9.88,72968.5,-5.55,-5.73,-5.73,0,*6D
1491628116.51,8177,9.88,72966.0,-5.55,-5.73,-5.69,0,*67
1491628117.74,8178,9.88,72974.8,-5.55,-5.73,-5.73,0,*63
1491628118.96,8179,9.88,72980.3,-5.55,-5.61,-5.55,0,*65
1491628120.16,8180,9.88,72980.3,-5.55,-5.51,-5.51,0,*64
1491628121.43,8181,9.88,72974.5,-5.53,-5.61,-5.61,0,*63
1491628122.7,8182,9.88,72990.5,-5.53,-5.61,-5.61,0,*60
1491628123.9,8183,9.88,72998.3,-5.51,-5.55,-5.51,0,*67
1491628125.18,8184,9.94,72996.0,-5.53,-5.61,-5.61,0,*66